[[{"header":{"parameterUnit":"m.s-1","parameterCategory":1,"la1":30.2991,"la2":30.254,"lo1":-89.0895,"lo2":-89.0444,"dy":0.0017,"dx":0.0017,"nx":28,"ny":28,"refTime":"2023-10-03T03:00:00:Z","depth":0,"parameterNumber":2,"parameterNumberName":"U-component_of_WINDS"},"data":[0,0,0,0,0,0,0,0,0,0,0,0,0,0,0,0,0,0,0,0,0,0,0,0,0,0,0,0,0,0,0,0,0,0,0,0,0,0,0,0,0,0,0,0,0,0,0,0,0,0,0,0,0,0,0,0,0,0,-4.8815,-4.8814,0,-4.8756,-4.8755,-4.8755,-4.8616,-4.8613,-4.861,-4.8607,-4.8551,-4.8553,-4.8554,0,0,0,0,0,0,0,0,0,0,0,0,0,-4.8813,-4.8814,-4.8815,-4.8814,-4.8813,-4.8756,-4.8755,-4.8754,-4.8616,-4.8613,-4.8609,-4.8606,-4.8551,-4.8552,-4.8554,0,0,0,0,0,0,0,0,0,0,0,0,0,-4.879,-4.8814,-4.8815,-4.8737,-4.873,-4.8756,-4.8755,-4.8754,-4.8617,-4.8612,-4.8608,-4.8604,-4.855,-4.8552,-4.8554,-4.8653,0,0,-4.856,-4.856,0,0,0,0,0,0,0,0,-4.8792,-4.879,-4.8749,-4.8743,-4.8734,-4.8688,-4.8734,-4.872,-4.8618,-4.866,-4.8607,-4.8602,-4.8601,-4.8598,-4.8597,-4.865,-4.8647,-4.856,-4.8561,-4.8562,-4.8562,0,0,0,0,0,0,0,-4.8793,-4.8792,-4.8792,-4.8749,-4.874,-4.8707,-4.8699,-4.8731,-4.8656,-4.8656,-4.8646,-4.864,-4.8596,-4.8595,-4.8595,-4.8647,-4.856,-4.8561,-4.8562,-4.8563,-4.8778,-4.8783,0,0,0,0,0,0,-4.8805,-4.8794,-4.8793,-4.879,-4.8753,-4.8711,-4.8702,-4.8708,-4.8655,-4.8643,-4.8644,-4.8634,-4.8594,-4.8593,-4.8592,-4.8703,-4.8562,-4.8563,-4.8564,-4.8774,-4.8779,-4.8784,0,0,0,0,0,0,-4.8806,-4.8807,-4.8796,-4.8789,-4.8785,-4.8715,-4.8723,-4.8709,-4.8708,-4.8646,-4.8632,-4.8657,-4.8591,-4.8589,-4.8638,-4.8699,-4.8564,-4.8566,-4.8768,-4.8775,-4.8782,-4.8927,0,0,0,0,0,0,-4.8806,-4.8808,-4.8843,-4.8791,-4.8786,-4.8842,-4.8727,-4.8711,-4.8711,-4.8697,-4.8654,-4.8643,-4.8587,-4.8636,-4.864,-4.8699,-4.8567,-4.8762,-4.8771,-4.878,-4.8917,-4.8938,-4.8957,0,0,0,0,0,-4.8807,-4.8887,-4.8845,-4.8846,-4.8829,-4.8846,-4.8843,-4.8776,-4.8717,-4.8752,-4.8713,-4.8645,-4.8693,-4.8642,-4.8646,-4.8706,-4.8758,-4.8769,-4.8779,-4.8908,-4.8934,-4.8956,0,0,0,0,0,0,-4.8949,-4.8879,-4.8832,-4.8897,-4.8878,-4.8822,-4.8864,-4.8806,-4.8804,-4.8792,-4.871,-4.8702,-4.8762,-4.8739,-4.8685,-4.8799,-4.8715,-4.8726,-4.8811,-4.8836,-4.8856,-4.8859,-4.8569,0,0,0,0,0,-4.8988,-4.9006,-4.8944,-4.9008,-4.9001,-4.8935,-4.894,-4.889,-4.8868,-4.8859,-4.8823,-4.8805,-4.8816,-4.8825,-4.8832,-4.8914,-4.8902,-4.8957,-4.8978,-4.8994,-4.9005,-4.9046,-4.907,-4.8818,-4.8818,-4.8818,0,0,-4.9068,-4.9032,-4.9049,-4.9036,-4.9015,-4.9037,-4.8929,-4.8957,-4.8972,-4.8864,-4.8906,-4.8881,-4.8855,-4.8921,-4.8948,-4.8904,-4.9072,-4.9008,-4.9021,-4.9022,-4.9059,-4.9083,-4.9105,-4.8825,-4.8824,-4.8823,0,0,-4.9226,-4.9201,-4.925,-4.9232,-4.9202,-4.9158,-4.9171,-4.9124,-4.9101,-4.9143,-4.9062,-4.9081,-4.9102,-4.9087,-4.9083,-4.9238,-4.9175,-4.9243,-4.9347,-4.9388,-4.9408,-4.9425,-4.948,-4.95,-4.9254,-4.9254,-4.9254,0,-4.933,-4.9357,-4.9284,-4.9317,-4.9314,-4.9216,-4.9267,-4.9254,-4.9229,-4.923,-4.9181,-4.9205,-4.9181,-4.9242,-4.928,-4.928,-4.9292,-4.9246,-4.9411,-4.9427,-4.9442,-4.9493,-4.9514,-4.9262,-4.9261,-4.926,-4.926,0,-4.9487,-4.9508,-4.9552,-4.9529,-4.9531,-4.9574,-4.9508,-4.952,-4.9471,-4.9433,-4.9478,-4.9447,-4.9445,-4.9457,-4.941,-4.9512,-4.9485,-4.9425,-4.9338,-4.9476,-4.9522,-4.9541,-4.9274,-4.9271,-4.9269,-4.9267,0,0,-4.9729,-4.9665,-4.9683,-4.9671,-4.9632,-4.9648,-4.9687,-4.9684,-4.9696,-4.9683,-4.9714,-4.9735,-4.9679,-4.9674,-4.9625,-4.9662,-4.9786,-4.9597,-4.9595,-4.9632,-4.9897,-4.9941,-4.9964,-4.9746,-4.9749,-4.9752,-4.9898,0,-4.9875,-4.9935,-4.9871,-4.9945,-4.9964,-4.9873,-4.9907,-4.9888,-4.9855,-4.9867,-4.9831,-4.9846,-4.9772,-4.9769,-4.9801,-4.9764,-4.9838,-4.9753,-4.9774,-4.9775,-4.978,-4.9989,-5.0035,-5.0174,-4.9916,-4.9919,-4.9921,0,-5.0053,-5.0047,-5.0122,-5.0079,-5.0085,-5.0116,-5.0109,-5.0122,-5.01,-5.0073,-5.0069,-5.0009,-5.0046,-4.9963,-5.0013,-4.9957,-4.9963,-4.9946,-4.995,-4.9947,-4.9855,-4.9991,-5.0217,-5.0238,-4.995,-4.9947,-4.9945,0,-5.022,-5.0232,-5.0278,-5.0271,-5.0222,-5.0247,-5.0228,-5.0201,-5.0204,-5.0199,-5.0201,-5.0201,-5.0201,-5.0204,-5.0147,-5.0092,-5.0205,-5.0117,-5.0184,-5.0185,-5.0209,-5.0208,-5.0438,-5.0217,-5.0217,-5.0216,-5.0216,0,-5.0389,-5.0439,-5.0352,-5.0381,-5.0434,-5.0363,-5.0418,-5.039,-5.0368,-5.039,-5.0313,-5.0337,-5.0261,-5.0277,-5.0234,-5.0282,-5.0283,-5.0263,-5.025,-5.0268,-5.0271,-5.0269,-5.0257,-5.0222,-5.022,-5.0219,-5.0218,0,-5.0584,-5.0528,-5.0572,-5.0523,-5.0512,-5.0554,-5.0512,-5.0537,-5.05,-5.053,-5.0533,-5.0474,-5.0489,-5.0433,-5.044,-5.041,-5.0481,-5.0453,-5.0488,-5.0479,-5.0548,-5.0542,-5.0783,-5.0811,-5.0574,-5.0577,-5.0579,0,-5.0693,-5.0729,-5.0684,-5.0693,-5.0678,-5.0694,-5.0696,-5.0628,-5.0635,-5.0613,-5.0641,-5.065,-5.0652,-5.0681,-5.064,-5.0645,-5.0616,-5.0701,-5.0616,-5.0633,-5.0615,-5.0613,-5.0616,-5.0717,-5.072,-5.0723,-5.0725,0,-5.0894,-5.0865,-5.0871,-5.0868,-5.0873,-5.0868,-5.0858,-5.087,-5.0797,-5.0809,-5.0822,-5.0825,-5.0831,-5.0841,-5.0837,-5.082,-5.0761,-5.0752,-5.0767,-5.0785,-5.0803,-5.0793,-5.0534,-5.0746,-5.0744,-5.0742,-5.0741,-5.074,-5.1048,-5.1076,-5.1048,-5.1058,-5.1043,-5.1036,-5.1057,-5.1022,-5.1032,-5.103,-5.0991,-5.1013,-5.0992,-5.098,-5.0969,-5.0986,-5.0947,-5.097,-5.0975,-5.0981,-5.0992,-5.0803,-5.0986,-5.0985,-5.0985,-5.0984,-5.0984,0,-5.1243,-5.1222,-5.1231,-5.1219,-5.1227,-5.1171,-5.1157,-5.1168,-5.1188,-5.1172,-5.1177,-5.1194,-5.1203,-5.1164,-5.1169,-5.119,-5.1163,-5.1194,-5.119,-5.1187,-5.1028,-5.1013,-5.1215,-5.1215,-5.1215,-5.1215,-5.1215,-5.1215,-5.1346,-5.1389,-5.1358,-5.1394,-5.1372,-5.1392,-5.1389,-5.1383,-5.137,-5.1391,-5.1398,-5.1373,-5.1348,-5.1351,-5.1358,-5.1346,-5.1351,-5.139,-5.1369,-5.1221,-5.1198,-5.1177,-5.1162,-5.1392,-5.1392,-5.1526,-5.1528,-5.1529]},{"header":{"parameterUnit":"m.s-1","parameterCategory":1,"la1":30.2991,"la2":30.254,"lo1":-89.0895,"lo2":-89.0444,"dy":0.0017,"dx":0.0017,"nx":28,"ny":28,"refTime":"2023-10-03T03:00:00:Z","depth":0,"parameterNumber":3,"parameterNumberName":"V-component_of_WINDS"},"data":[0,0,0,0,0,0,0,0,0,0,0,0,0,0,0,0,0,0,0,0,0,0,0,0,0,0,0,0,0,0,0,0,0,0,0,0,0,0,0,0,0,0,0,0,0,0,0,0,0,0,0,0,0,0,0,0,0,0,1.1987,1.1987,0,1.1953,1.1952,1.1952,1.2002,1.2004,1.2005,1.2007,1.1965,1.1962,1.1959,0,0,0,0,0,0,0,0,0,0,0,0,0,1.2091,1.2089,1.1987,1.1987,1.1986,1.1953,1.1952,1.1952,1.2002,1.2004,1.2006,1.2008,1.1966,1.1962,1.1959,0,0,0,0,0,0,0,0,0,0,0,0,0,1.205,1.2088,1.1987,1.2007,1.2009,1.1953,1.1952,1.1952,1.2001,1.2004,1.2006,1.2009,1.1967,1.1963,1.1959,1.1879,0,0,1.1946,1.1944,0,0,0,0,0,0,0,0,1.2052,1.2046,1.2005,1.2006,1.2007,1.1984,1.1973,1.1927,1.2,1.2004,1.2007,1.201,1.1969,1.1964,1.1952,1.1877,1.1875,1.1945,1.1943,1.1941,1.194,0,0,0,0,0,0,0,1.2055,1.2048,1.1973,1.2004,1.2006,1.2016,1.2013,1.1965,1.1971,1.2004,1.2007,1.2003,1.197,1.1956,1.1951,1.1875,1.1946,1.1942,1.1939,1.1938,1.1734,1.1731,0,0,0,0,0,0,1.2056,1.205,1.1974,1.1972,1.2037,1.2012,1.2009,1.1989,1.1972,1.1972,1.2001,1.2005,1.1962,1.1956,1.195,1.1856,1.1941,1.1937,1.1935,1.1737,1.1733,1.173,0,0,0,0,0,0,1.2058,1.2049,1.1976,1.2012,1.2004,1.2008,1.1985,1.1987,1.1973,1.197,1.1971,1.1985,1.1964,1.1956,1.1897,1.1855,1.1935,1.1931,1.174,1.1736,1.1732,1.1667,0,0,0,0,0,0,1.2061,1.2049,1.202,1.2011,1.2001,1.1924,1.1982,1.1984,1.1966,1.1972,1.1956,1.1956,1.1965,1.1903,1.1893,1.1851,1.1928,1.1744,1.1738,1.1733,1.1673,1.1661,1.1651,0,0,0,0,0,1.2065,1.2002,1.2018,1.2009,1.1965,1.1922,1.1916,1.193,1.1963,1.1933,1.1931,1.1956,1.1862,1.1897,1.1886,1.1841,1.1746,1.174,1.1733,1.1677,1.1663,1.1651,0,0,0,0,0,0,1.2002,1.2001,1.2019,1.1952,1.1937,1.1931,1.1893,1.1915,1.1888,1.1894,1.1911,1.1907,1.1844,1.1837,1.1876,1.1764,1.1809,1.18,1.1771,1.1757,1.1746,1.1748,1.1925,0,0,0,0,0,1.1982,1.1948,1.1948,1.1888,1.188,1.1888,1.187,1.1882,1.1867,1.186,1.1854,1.1836,1.1803,1.178,1.1749,1.1673,1.1669,1.1637,1.1626,1.1617,1.1608,1.1568,1.1553,1.1709,1.1709,1.1709,0,0,1.1936,1.1932,1.1909,1.1876,1.1866,1.183,1.1882,1.1841,1.1814,1.1853,1.1797,1.1793,1.1774,1.1706,1.1676,1.1698,1.1565,1.1609,1.1602,1.1598,1.1559,1.1545,1.1532,1.1704,1.1705,1.1706,0,0,1.1836,1.183,1.1779,1.1769,1.1755,1.1761,1.1749,1.174,1.1739,1.1685,1.1713,1.1681,1.1623,1.1608,1.1593,1.1491,1.1512,1.148,1.1421,1.1381,1.1369,1.1358,1.132,1.1307,1.1472,1.1472,1.1471,0,1.1781,1.1729,1.175,1.1708,1.1692,1.173,1.1678,1.1667,1.1642,1.1629,1.1656,1.1585,1.1575,1.1505,1.148,1.1467,1.1453,1.148,1.137,1.1359,1.1349,1.1313,1.1299,1.1468,1.1468,1.1468,1.1469,0,1.1662,1.1626,1.1587,1.1565,1.1546,1.1499,1.1511,1.1488,1.1504,1.1507,1.1451,1.1441,1.1409,1.1394,1.1407,1.1325,1.1339,1.1368,1.1413,1.133,1.1297,1.1283,1.1462,1.1463,1.1465,1.1466,0,0,1.1518,1.1511,1.1496,1.1487,1.1475,1.1447,1.1402,1.1373,1.1353,1.1335,1.1297,1.1249,1.1276,1.1259,1.1271,1.1237,1.1155,1.1269,1.1269,1.1247,1.1063,1.1041,1.1025,1.1171,1.1168,1.1166,1.1065,0,1.1417,1.1341,1.136,1.1285,1.1251,1.1288,1.1249,1.1236,1.1239,1.1209,1.1211,1.1176,1.1215,1.1205,1.1173,1.1172,1.1118,1.118,1.1133,1.1131,1.1134,1.1007,1.0983,1.0887,1.1052,1.105,1.1048,0,1.1288,1.1268,1.119,1.1186,1.1172,1.1137,1.1113,1.1085,1.1072,1.1076,1.1059,1.1079,1.1033,1.1081,1.1018,1.1059,1.1042,1.1039,1.1036,1.1029,1.1083,1.0996,1.0857,1.0842,1.1028,1.1029,1.1031,0,1.1189,1.1143,1.1091,1.1082,1.1075,1.105,1.1045,1.1035,1.1017,1.0996,1.0984,1.0957,1.0942,1.092,1.0931,1.0965,1.0865,1.0915,1.0865,1.0865,1.084,1.0841,1.0694,1.0832,1.0833,1.0833,1.0833,0,1.1072,1.1023,1.1046,1.1013,1.0959,1.0981,1.0926,1.0926,1.0917,1.0884,1.0914,1.0882,1.0901,1.087,1.0878,1.0824,1.0817,1.0818,1.082,1.0814,1.0813,1.08,1.0806,1.0829,1.083,1.0831,1.0831,0,1.0951,1.0965,1.091,1.091,1.0909,1.0868,1.0867,1.0836,1.0843,1.08,1.0792,1.08,1.0765,1.0776,1.0738,1.0744,1.0675,1.0687,1.0679,1.0682,1.0631,1.0635,1.0469,1.0448,1.0602,1.06,1.0599,0,1.0875,1.0838,1.0835,1.0816,1.0811,1.078,1.0763,1.0784,1.0765,1.0749,1.0719,1.0688,1.0664,1.0607,1.0608,1.0579,1.0589,1.0533,1.0584,1.058,1.0586,1.0587,1.0583,1.0522,1.052,1.0519,1.0517,0,1.0737,1.0747,1.0723,1.0701,1.068,1.0663,1.0649,1.0632,1.0652,1.0628,1.0595,1.0577,1.054,1.0507,1.0482,1.0476,1.0499,1.0502,1.0489,1.048,1.0477,1.0477,1.0649,1.0505,1.0506,1.0507,1.0508,1.0508,1.0635,1.0605,1.0598,1.057,1.0562,1.0549,1.052,1.0524,1.0498,1.0471,1.0485,1.0445,1.0434,1.0403,1.0394,1.0362,1.0383,1.0364,1.0359,1.0354,1.0347,1.0485,1.0358,1.0358,1.0359,1.0359,1.0359,0,1.0498,1.0497,1.0471,1.0452,1.043,1.0458,1.0444,1.0423,1.0389,1.0378,1.0355,1.0316,1.0286,1.0287,1.0258,1.0233,1.0243,1.0225,1.0225,1.0224,1.033,1.0344,1.0217,1.0217,1.0217,1.0217,1.0217,1.0217,1.0424,1.0374,1.0383,1.0329,1.0328,1.0292,1.0281,1.0269,1.026,1.0217,1.0193,1.0195,1.0188,1.016,1.0134,1.0134,1.0122,1.0099,1.0103,1.0202,1.0216,1.0229,1.0242,1.0096,1.0096,0.9999,0.9998,0.9997]}]]